TimeEDT,TemperatureF,Dew PointF,Humidity,Sea Level PressureIn,VisibilityMPH,Wind Direction,Wind SpeedMPH,Gust SpeedMPH,PrecipitationIn,Events,Conditions,WindDirDegrees,DateUTC
12:56 AM,50.0,37.0,61,30.35,10.0,NE,3.5,-,N/A,,Clear,40,2013-05-25 04:56:00
1:56 AM,46.9,37.0,68,30.34,10.0,ENE,5.8,-,N/A,,Clear,70,2013-05-25 05:56:00
2:56 AM,45.0,37.9,76,30.35,10.0,Calm,Calm,-,N/A,,Clear,0,2013-05-25 06:56:00
3:56 AM,45.0,39.0,80,30.35,10.0,East,3.5,-,N/A,,Clear,90,2013-05-25 07:56:00
4:56 AM,43.0,39.0,86,30.35,10.0,ENE,3.5,-,N/A,,Clear,70,2013-05-25 08:56:00
5:56 AM,44.1,39.0,82,30.34,10.0,SE,5.8,-,N/A,,Scattered Clouds,130,2013-05-25 09:56:00
6:56 AM,45.0,39.9,82,30.34,10.0,SSE,5.8,-,N/A,,Mostly Cloudy,160,2013-05-25 10:56:00
7:56 AM,46.9,39.0,74,30.37,10.0,South,5.8,-,N/A,,Mostly Cloudy,180,2013-05-25 11:56:00
8:56 AM,48.9,39.9,71,30.40,10.0,South,4.6,-,N/A,,Mostly Cloudy,180,2013-05-25 12:56:00
9:56 AM,53.1,41.0,64,30.42,10.0,Calm,Calm,-,N/A,,Mostly Cloudy,0,2013-05-25 13:56:00
10:56 AM,55.9,39.0,53,30.40,10.0,Calm,Calm,-,N/A,,Mostly Cloudy,0,2013-05-25 14:56:00
11:56 AM,59.0,37.0,44,30.39,10.0,West,4.6,-,N/A,,Mostly Cloudy,260,2013-05-25 15:56:00
12:56 PM,62.1,39.0,43,30.36,10.0,Variable,3.5,-,N/A,,Mostly Cloudy,0,2013-05-25 16:56:00
1:56 PM,63.0,39.0,41,30.35,10.0,WNW,6.9,-,N/A,,Mostly Cloudy,300,2013-05-25 17:56:00
2:56 PM,64.0,35.1,34,30.35,10.0,NE,6.9,-,N/A,,Mostly Cloudy,40,2013-05-25 18:56:00
3:56 PM,64.9,36.0,34,30.32,10.0,Variable,3.5,-,N/A,,Mostly Cloudy,0,2013-05-25 19:56:00
4:56 PM,64.9,35.1,33,30.31,10.0,Calm,Calm,-,N/A,,Mostly Cloudy,0,2013-05-25 20:56:00
5:56 PM,64.9,37.9,37,30.29,10.0,Calm,Calm,-,N/A,,Mostly Cloudy,0,2013-05-25 21:56:00
6:56 PM,63.0,41.0,45,30.27,10.0,WSW,9.2,-,N/A,,Mostly Cloudy,240,2013-05-25 22:56:00
7:56 PM,61.0,43.0,52,30.25,10.0,WSW,5.8,-,N/A,,Mostly Cloudy,240,2013-05-25 23:56:00
8:56 PM,57.9,44.1,60,30.27,10.0,WSW,4.6,-,N/A,,Mostly Cloudy,250,2013-05-26 00:56:00
9:56 PM,57.9,44.1,60,30.27,10.0,WSW,4.6,-,N/A,,Overcast,240,2013-05-26 01:56:00
10:56 PM,57.0,45.0,64,30.28,10.0,WSW,5.8,-,N/A,,Overcast,250,2013-05-26 02:56:00
11:56 PM,55.9,45.0,67,30.29,10.0,Calm,Calm,-,N/A,,Overcast,0,2013-05-26 03:56:00